KLM737 LFMN-LEPA

Flight info

Callsign KLM737
Flight time 1h 11m
Altitude 38000
Route EPOLO DCT SOFFY DCT VATIR N852 VERSO L129 LUNIK
Aircraft B739/M-SDE2E3FGHIRWXY/LB1

Departure

Time 2026-05-06 21:21
Airport Nice-Côte d'Azur Airport (LFMN)

Arrival

Time 2026-05-06 22:32
Airport Palma de Mallorca Airport (LEPA)
Time Latitude Longitude Altitude Speed Heading
2026-05-06 21:03 43.65710 7.20693 22 ft 0 kts 315°
2026-05-06 21:13 43.65704 7.20701 21 ft 4 kts 315°
2026-05-06 21:13 43.65684 7.20725 23 ft 4 kts 332°
2026-05-06 21:13 43.65661 7.20733 23 ft 4 kts 15°
2026-05-06 21:13 43.65645 7.20723 21 ft 0 kts 44°
2026-05-06 21:15 43.65648 7.20727 21 ft 5 kts 44°
2026-05-06 21:15 43.65686 7.20779 22 ft 8 kts 44°
2026-05-06 21:16 43.65725 7.20832 21 ft 8 kts 44°
2026-05-06 21:16 43.65765 7.20885 21 ft 9 kts 44°
2026-05-06 21:16 43.65814 7.20951 21 ft 11 kts 46°
2026-05-06 21:16 43.65876 7.21037 21 ft 14 kts 44°
2026-05-06 21:17 43.65951 7.21142 21 ft 17 kts 46°
2026-05-06 21:17 43.66040 7.21263 21 ft 19 kts 44°
2026-05-06 21:17 43.66139 7.21396 21 ft 21 kts 46°
2026-05-06 21:17 43.66243 7.21546 21 ft 23 kts 45°
2026-05-06 21:18 43.66355 7.21700 21 ft 23 kts 45°
2026-05-06 21:18 43.66466 7.21849 21 ft 22 kts 44°
2026-05-06 21:18 43.66574 7.21995 21 ft 21 kts 45°
2026-05-06 21:18 43.66678 7.22139 21 ft 21 kts 44°
2026-05-06 21:19 43.66779 7.22276 21 ft 20 kts 44°
2026-05-06 21:19 43.66794 7.22422 21 ft 14 kts 131°
2026-05-06 21:19 43.66730 7.22519 20 ft 13 kts 134°
2026-05-06 21:19 43.66666 7.22608 21 ft 13 kts 134°
2026-05-06 21:20 43.66600 7.22690 21 ft 13 kts 135°
2026-05-06 21:20 43.66559 7.22745 21 ft 12 kts 145°
2026-05-06 21:20 43.66480 7.22729 23 ft 0 kts 220°
2026-05-06 21:21 43.66462 7.22707 22 ft 24 kts 223°
2026-05-06 21:21 43.66123 7.22238 24 ft 111 kts 225°
2026-05-06 21:21 43.65428 7.21231 68 ft 173 kts 229°
2026-05-06 21:21 43.64514 7.19996 651 ft 193 kts 224°
2026-05-06 21:22 43.63519 7.18593 1170 ft 221 kts 226°
2026-05-06 21:22 43.62353 7.17016 1801 ft 242 kts 225°
2026-05-06 21:22 43.60996 7.15629 2826 ft 241 kts 201°
2026-05-06 21:22 43.59385 7.15558 4165 ft 229 kts 163°
2026-05-06 21:23 43.57987 7.16556 5188 ft 228 kts 153°
2026-05-06 21:23 43.57072 7.17298 5661 ft 233 kts 153°
2026-05-06 21:23 43.55671 7.18468 6410 ft 238 kts 147°
2026-05-06 21:23 43.54111 7.20679 7338 ft 250 kts 133°
2026-05-06 21:24 43.52967 7.22506 8074 ft 254 kts 134°
2026-05-06 21:24 43.51792 7.24345 8886 ft 254 kts 135°
2026-05-06 21:24 43.51000 7.25572 9487 ft 253 kts 135°
2026-05-06 21:24 43.49831 7.27374 10180 ft 258 kts 135°
2026-05-06 21:25 43.48457 7.28911 10887 ft 251 kts 162°
2026-05-06 21:25 43.46776 7.29273 11537 ft 246 kts 192°
2026-05-06 21:25 43.45134 7.28489 11865 ft 258 kts 215°
2026-05-06 21:25 43.43652 7.26929 12084 ft 280 kts 223°
2026-05-06 21:26 43.42133 7.25106 12279 ft 304 kts 223°
2026-05-06 21:26 43.40492 7.23100 12448 ft 328 kts 223°
2026-05-06 21:26 43.38731 7.20957 12644 ft 348 kts 223°
2026-05-06 21:26 43.36857 7.18694 12902 ft 364 kts 223°
2026-05-06 21:27 43.34920 7.16372 13404 ft 373 kts 222°
2026-05-06 21:27 43.32954 7.14025 14043 ft 376 kts 222°
2026-05-06 21:27 43.30969 7.11664 14730 ft 376 kts 221°
2026-05-06 21:27 43.28986 7.09308 15525 ft 374 kts 222°
2026-05-06 21:28 43.27004 7.06955 16058 ft 380 kts 222°
2026-05-06 21:28 43.25007 7.04585 16526 ft 386 kts 221°
2026-05-06 21:28 43.22966 7.02163 17071 ft 390 kts 221°
2026-05-06 21:28 43.20903 6.99720 17640 ft 393 kts 221°
2026-05-06 21:29 43.18825 6.97265 18247 ft 394 kts 221°
2026-05-06 21:29 43.16766 6.94762 18788 ft 395 kts 224°
2026-05-06 21:29 43.14843 6.92078 19374 ft 395 kts 227°
2026-05-06 21:29 43.12977 6.89319 19973 ft 394 kts 228°
2026-05-06 21:30 43.11122 6.86545 20523 ft 395 kts 228°
2026-05-06 21:30 43.09258 6.83778 21076 ft 396 kts 228°
2026-05-06 21:30 43.07366 6.80999 21479 ft 401 kts 227°
2026-05-06 21:30 43.05456 6.78216 22017 ft 401 kts 227°
2026-05-06 21:31 43.03547 6.75451 22607 ft 400 kts 227°
2026-05-06 21:31 43.01634 6.72689 23128 ft 400 kts 227°
2026-05-06 21:31 42.99713 6.69920 23585 ft 401 kts 227°
2026-05-06 21:31 42.97813 6.67180 23965 ft 403 kts 227°
2026-05-06 21:32 42.95878 6.64391 24335 ft 405 kts 227°
2026-05-06 21:32 42.91974 6.58780 25050 ft 409 kts 228°
2026-05-06 21:32 42.90340 6.55619 25405 ft 410 kts 243°
2026-05-06 21:33 42.89378 6.51948 25803 ft 413 kts 253°
2026-05-06 21:33 42.88946 6.48058 26120 ft 420 kts 265°
2026-05-06 21:33 42.89160 6.44058 26468 ft 426 kts 273°
2026-05-06 21:33 42.89581 6.40049 26805 ft 428 kts 274°
2026-05-06 21:34 42.90038 6.36035 27250 ft 427 kts 274°
2026-05-06 21:34 42.90496 6.32048 27800 ft 424 kts 274°
2026-05-06 21:34 42.90943 6.28088 28365 ft 420 kts 273°
2026-05-06 21:34 42.91374 6.24153 28884 ft 418 kts 273°
2026-05-06 21:35 42.91795 6.20227 29377 ft 417 kts 273°
2026-05-06 21:35 42.92205 6.16328 29889 ft 415 kts 273°
2026-05-06 21:35 42.92611 6.12433 30347 ft 413 kts 273°
2026-05-06 21:35 42.93012 6.08559 30735 ft 413 kts 273°
2026-05-06 21:36 42.93411 6.04676 31061 ft 413 kts 273°
2026-05-06 21:36 42.93803 6.00854 31405 ft 413 kts 273°
2026-05-06 21:36 42.94200 5.96976 31775 ft 412 kts 273°
2026-05-06 21:36 42.94595 5.93111 32125 ft 411 kts 273°
2026-05-06 21:37 42.94989 5.89236 32457 ft 411 kts 273°
2026-05-06 21:37 42.95380 5.85382 32806 ft 411 kts 273°
2026-05-06 21:37 42.95771 5.81516 33152 ft 410 kts 273°
2026-05-06 21:37 42.96160 5.77656 33472 ft 410 kts 273°
2026-05-06 21:38 42.96547 5.73801 33792 ft 410 kts 273°
2026-05-06 21:38 42.96932 5.69951 34117 ft 409 kts 274°
2026-05-06 21:38 42.97316 5.66113 34450 ft 407 kts 274°
2026-05-06 21:38 42.97696 5.62282 34665 ft 408 kts 274°
2026-05-06 21:39 42.98078 5.58426 34829 ft 410 kts 274°
2026-05-06 21:39 42.98458 5.54566 35020 ft 411 kts 274°
2026-05-06 21:39 42.98840 5.50688 35249 ft 411 kts 274°
2026-05-06 21:39 42.99220 5.46812 35462 ft 412 kts 274°
2026-05-06 21:40 42.99600 5.42930 35660 ft 413 kts 274°
2026-05-06 21:40 42.99980 5.39034 35851 ft 414 kts 274°
2026-05-06 21:40 43.00359 5.35141 36058 ft 414 kts 274°
2026-05-06 21:40 43.00738 5.31233 36248 ft 415 kts 274°
2026-05-06 21:41 43.01116 5.27303 36354 ft 418 kts 274°
2026-05-06 21:41 43.01370 5.23365 36533 ft 415 kts 264°
2026-05-06 21:41 43.00836 5.19543 36737 ft 410 kts 249°
2026-05-06 21:41 42.99700 5.16016 36905 ft 411 kts 240°
2026-05-06 21:42 42.98013 5.12862 37041 ft 413 kts 227°
2026-05-06 21:42 42.95952 5.10122 37212 ft 415 kts 225°
2026-05-06 21:42 42.93827 5.07454 37373 ft 416 kts 224°
2026-05-06 21:42 42.91678 5.04795 37566 ft 416 kts 224°
2026-05-06 21:43 42.89541 5.02146 37766 ft 415 kts 224°
2026-05-06 21:43 42.87415 4.99491 37987 ft 414 kts 224°
2026-05-06 21:43 42.83162 4.94131 37988 ft 418 kts 224°
2026-05-06 21:44 42.78902 4.88735 37989 ft 419 kts 224°
2026-05-06 21:44 42.74646 4.83346 37986 ft 420 kts 224°
2026-05-06 21:45 42.70359 4.77927 37988 ft 420 kts 224°
2026-05-06 21:45 42.66070 4.72518 37993 ft 420 kts 224°
2026-05-06 21:46 42.61781 4.67120 37990 ft 420 kts 224°
2026-05-06 21:46 42.57500 4.61743 37994 ft 419 kts 224°
2026-05-06 21:47 42.53216 4.56373 38015 ft 419 kts 225°
2026-05-06 21:47 42.48932 4.51012 37990 ft 418 kts 224°
2026-05-06 21:48 42.44660 4.45675 37997 ft 418 kts 224°
2026-05-06 21:48 42.40390 4.40353 38004 ft 417 kts 224°
2026-05-06 21:49 42.36121 4.35041 38000 ft 417 kts 224°
2026-05-06 21:49 42.31877 4.29769 37979 ft 416 kts 224°
2026-05-06 21:50 42.27614 4.24483 37999 ft 416 kts 224°
2026-05-06 21:50 42.23352 4.19205 38015 ft 416 kts 225°
2026-05-06 21:51 42.19077 4.13927 38010 ft 416 kts 224°
2026-05-06 21:51 42.14354 4.09393 38014 ft 421 kts 211°
2026-05-06 21:52 42.09183 4.05683 38007 ft 421 kts 211°
2026-05-06 21:52 42.04025 4.01930 38006 ft 421 kts 212°
2026-05-06 21:53 41.98912 3.98175 38009 ft 421 kts 212°
2026-05-06 21:53 41.93732 3.94474 38004 ft 423 kts 207°
2026-05-06 21:54 41.88040 3.92272 38012 ft 430 kts 194°
2026-05-06 21:54 41.82136 3.90974 38001 ft 430 kts 194°
2026-05-06 21:55 41.76242 3.89646 38000 ft 429 kts 194°
2026-05-06 21:55 41.70369 3.88282 37990 ft 428 kts 195°
2026-05-06 21:56 41.64521 3.86917 38001 ft 426 kts 195°
2026-05-06 21:56 41.58675 3.85566 38002 ft 426 kts 195°
2026-05-06 21:57 41.55736 3.84894 37528 ft 433 kts 195°
2026-05-06 21:57 41.52763 3.84218 36953 ft 432 kts 195°
2026-05-06 21:57 41.49803 3.83548 36240 ft 429 kts 195°
2026-05-06 21:57 41.46864 3.82882 35527 ft 427 kts 196°
2026-05-06 21:58 41.43974 3.82226 34761 ft 426 kts 196°
2026-05-06 21:58 41.41052 3.81560 33976 ft 426 kts 197°
2026-05-06 21:58 41.38124 3.80893 33050 ft 426 kts 197°
2026-05-06 21:58 41.35210 3.80229 32173 ft 425 kts 197°
2026-05-06 21:59 41.32294 3.79565 31308 ft 425 kts 197°
2026-05-06 21:59 41.29369 3.78900 30403 ft 426 kts 196°
2026-05-06 21:59 41.26446 3.78234 29372 ft 427 kts 196°
2026-05-06 21:59 41.23523 3.77570 28375 ft 427 kts 195°
2026-05-06 22:00 41.20594 3.76906 27516 ft 424 kts 195°
2026-05-06 22:00 41.17705 3.76257 26827 ft 418 kts 195°
2026-05-06 22:00 41.14882 3.75486 26160 ft 409 kts 201°
2026-05-06 22:00 41.12241 3.74230 25484 ft 400 kts 206°
2026-05-06 22:01 41.09663 3.72872 24813 ft 397 kts 206°
2026-05-06 22:01 41.07139 3.71547 24153 ft 394 kts 206°
2026-05-06 22:01 41.04596 3.70219 23504 ft 392 kts 205°
2026-05-06 22:01 41.02022 3.68881 22738 ft 392 kts 205°
2026-05-06 22:02 40.99509 3.67580 22048 ft 396 kts 205°
2026-05-06 22:02 40.96918 3.66239 21372 ft 403 kts 205°
2026-05-06 22:02 40.94304 3.64893 20674 ft 401 kts 205°
2026-05-06 22:02 40.91714 3.63563 19997 ft 396 kts 204°
2026-05-06 22:03 40.89154 3.62251 19340 ft 392 kts 204°
2026-05-06 22:03 40.86621 3.60952 18692 ft 389 kts 204°
2026-05-06 22:03 40.84111 3.59665 17986 ft 386 kts 204°
2026-05-06 22:03 40.81614 3.58385 17275 ft 383 kts 204°
2026-05-06 22:04 40.79137 3.57116 16601 ft 380 kts 204°
2026-05-06 22:04 40.76679 3.55857 15953 ft 377 kts 203°
2026-05-06 22:04 40.74243 3.54611 15315 ft 374 kts 203°
2026-05-06 22:04 40.71823 3.53373 14688 ft 372 kts 203°
2026-05-06 22:05 40.69421 3.52147 14051 ft 370 kts 202°
2026-05-06 22:05 40.67051 3.50937 13361 ft 369 kts 202°
2026-05-06 22:05 40.64664 3.49719 12689 ft 367 kts 202°
2026-05-06 22:05 40.62291 3.48509 12033 ft 365 kts 202°
2026-05-06 22:06 40.59933 3.47308 11390 ft 363 kts 202°
2026-05-06 22:06 40.57589 3.46114 10875 ft 358 kts 202°
2026-05-06 22:06 40.55320 3.44960 10724 ft 343 kts 202°
2026-05-06 22:06 40.53137 3.43849 10569 ft 329 kts 202°
2026-05-06 22:07 40.51039 3.42781 10418 ft 317 kts 202°
2026-05-06 22:07 40.49027 3.41760 10270 ft 300 kts 202°
2026-05-06 22:07 40.47139 3.40804 10154 ft 282 kts 202°
2026-05-06 22:07 40.45376 3.39913 10024 ft 266 kts 202°
2026-05-06 22:08 40.43637 3.39206 9908 ft 253 kts 185°
2026-05-06 22:08 40.41926 3.39250 9869 ft 250 kts 178°
2026-05-06 22:08 40.40107 3.39379 9822 ft 271 kts 178°
2026-05-06 22:08 40.38165 3.39512 9693 ft 278 kts 178°
2026-05-06 22:09 40.36229 3.39640 9601 ft 279 kts 178°
2026-05-06 22:09 40.34319 3.39762 9490 ft 277 kts 178°
2026-05-06 22:09 40.32395 3.39881 9392 ft 276 kts 179°
2026-05-06 22:09 40.30484 3.39997 9290 ft 274 kts 178°
2026-05-06 22:10 40.28580 3.40110 9194 ft 273 kts 178°
2026-05-06 22:10 40.26686 3.40221 9101 ft 272 kts 178°
2026-05-06 22:10 40.25413 3.40295 9039 ft 271 kts 178°
2026-05-06 22:10 40.23552 3.40403 8947 ft 271 kts 179°
2026-05-06 22:11 40.21669 3.40511 8851 ft 270 kts 178°
2026-05-06 22:11 40.19790 3.40619 8756 ft 270 kts 178°
2026-05-06 22:11 40.17913 3.40727 8668 ft 270 kts 179°
2026-05-06 22:11 40.16039 3.40835 8573 ft 270 kts 179°
2026-05-06 22:12 40.14163 3.40945 8479 ft 269 kts 179°
2026-05-06 22:12 40.12289 3.41054 8389 ft 269 kts 178°
2026-05-06 22:12 40.10420 3.41162 8298 ft 269 kts 178°
2026-05-06 22:12 40.08548 3.41270 8201 ft 269 kts 178°
2026-05-06 22:13 40.06680 3.41377 8112 ft 269 kts 178°
2026-05-06 22:13 40.04815 3.41483 8021 ft 269 kts 178°
2026-05-06 22:13 40.02967 3.41588 7930 ft 268 kts 179°
2026-05-06 22:13 40.01098 3.41693 7834 ft 268 kts 178°
2026-05-06 22:14 39.99234 3.41798 7745 ft 268 kts 179°
2026-05-06 22:14 39.97374 3.41902 7650 ft 267 kts 178°
2026-05-06 22:14 39.95516 3.42007 7558 ft 266 kts 178°
2026-05-06 22:14 39.93668 3.42110 7465 ft 265 kts 178°
2026-05-06 22:15 39.91823 3.42214 7370 ft 265 kts 178°
2026-05-06 22:15 39.89985 3.42317 7283 ft 264 kts 178°
2026-05-06 22:15 39.88155 3.42419 7192 ft 263 kts 177°
2026-05-06 22:15 39.86325 3.42521 7099 ft 263 kts 177°
2026-05-06 22:16 39.84497 3.42623 7010 ft 262 kts 177°
2026-05-06 22:16 39.82701 3.42723 6922 ft 262 kts 177°
2026-05-06 22:16 39.80881 3.42823 6829 ft 261 kts 177°
2026-05-06 22:16 39.79063 3.42924 6737 ft 261 kts 177°
2026-05-06 22:17 39.77252 3.43025 6650 ft 260 kts 177°
2026-05-06 22:17 39.75442 3.43126 6561 ft 260 kts 177°
2026-05-06 22:17 39.73634 3.43228 6466 ft 260 kts 176°
2026-05-06 22:17 39.71829 3.43312 6376 ft 260 kts 181°
2026-05-06 22:18 39.70104 3.42673 6261 ft 261 kts 212°
2026-05-06 22:18 39.68823 3.41021 6199 ft 261 kts 236°
2026-05-06 22:18 39.67961 3.38946 6113 ft 261 kts 242°
2026-05-06 22:18 39.67162 3.36821 6021 ft 263 kts 243°
2026-05-06 22:19 39.66362 3.34681 5926 ft 264 kts 243°
2026-05-06 22:19 39.65555 3.32539 5835 ft 265 kts 243°
2026-05-06 22:19 39.64737 3.30394 5737 ft 265 kts 242°
2026-05-06 22:19 39.63913 3.28251 5655 ft 266 kts 242°
2026-05-06 22:20 39.63084 3.26105 5567 ft 266 kts 242°
2026-05-06 22:20 39.62255 3.23961 5474 ft 266 kts 242°
2026-05-06 22:20 39.61427 3.21819 5384 ft 265 kts 242°
2026-05-06 22:20 39.60598 3.19683 5297 ft 265 kts 242°
2026-05-06 22:21 39.59769 3.17545 5212 ft 265 kts 242°
2026-05-06 22:21 39.58943 3.15417 5113 ft 264 kts 242°
2026-05-06 22:21 39.58118 3.13290 5021 ft 264 kts 242°
2026-05-06 22:21 39.57304 3.11193 4926 ft 263 kts 242°
2026-05-06 22:22 39.56484 3.09080 4850 ft 263 kts 242°
2026-05-06 22:22 39.55653 3.06942 4530 ft 270 kts 242°
2026-05-06 22:22 39.54815 3.04787 4353 ft 264 kts 242°
2026-05-06 22:22 39.54003 3.02697 4230 ft 256 kts 242°
2026-05-06 22:23 39.53209 3.00655 4127 ft 254 kts 242°
2026-05-06 22:23 39.52410 2.98601 4039 ft 256 kts 242°
2026-05-06 22:23 39.51602 2.96528 3957 ft 260 kts 242°
2026-05-06 22:23 39.50787 2.94437 3853 ft 261 kts 242°
2026-05-06 22:24 39.49970 2.92341 3749 ft 260 kts 242°
2026-05-06 22:24 39.49159 2.90264 3646 ft 258 kts 242°
2026-05-06 22:24 39.48351 2.88192 3560 ft 257 kts 242°
2026-05-06 22:24 39.47545 2.86128 3471 ft 258 kts 242°
2026-05-06 22:25 39.46734 2.84051 3387 ft 258 kts 242°
2026-05-06 22:25 39.45922 2.81976 3285 ft 258 kts 242°
2026-05-06 22:25 39.45110 2.79907 3196 ft 257 kts 241°
2026-05-06 22:25 39.44301 2.77845 3095 ft 257 kts 241°
2026-05-06 22:26 39.43527 2.75765 2999 ft 257 kts 250°
2026-05-06 22:26 39.43216 2.73492 2959 ft 257 kts 263°
2026-05-06 22:26 39.43036 2.71211 2903 ft 259 kts 263°
2026-05-06 22:26 39.42841 2.68890 2846 ft 260 kts 262°
2026-05-06 22:27 39.42635 2.66570 2781 ft 259 kts 262°
2026-05-06 22:27 39.42422 2.64264 2726 ft 258 kts 262°
2026-05-06 22:27 39.42205 2.61961 2666 ft 255 kts 262°
2026-05-06 22:27 39.41993 2.59728 2589 ft 245 kts 262°
2026-05-06 22:28 39.41788 2.57590 2534 ft 234 kts 261°
2026-05-06 22:28 39.41750 2.55507 2453 ft 232 kts 285°
2026-05-06 22:28 39.42596 2.53768 2477 ft 233 kts 321°
2026-05-06 22:28 39.44055 2.52891 2428 ft 235 kts 355°
2026-05-06 22:29 39.45634 2.53186 2360 ft 226 kts 31°
2026-05-06 22:29 39.46675 2.54538 2305 ft 211 kts 58°
2026-05-06 22:29 39.47574 2.56072 2171 ft 215 kts 52°
2026-05-06 22:29 39.48444 2.57639 1929 ft 213 kts 60°
2026-05-06 22:30 39.49176 2.59263 1825 ft 205 kts 61°
2026-05-06 22:30 39.49893 2.60817 1734 ft 195 kts 60°
2026-05-06 22:30 39.50584 2.62288 1580 ft 189 kts 60°
2026-05-06 22:30 39.51253 2.63710 1353 ft 182 kts 60°
2026-05-06 22:31 39.51902 2.65093 1117 ft 178 kts 60°
2026-05-06 22:31 39.52532 2.66433 885 ft 171 kts 58°
2026-05-06 22:31 39.53137 2.67719 650 ft 162 kts 58°
2026-05-06 22:31 39.53708 2.68932 455 ft 154 kts 58°
2026-05-06 22:32 39.54239 2.70062 250 ft 140 kts 59°
2026-05-06 22:32 39.54719 2.71080 59 ft 129 kts 59°
2026-05-06 22:32 39.55159 2.72017 27 ft 103 kts 58°
2026-05-06 22:32 39.55375 2.72464 27 ft 32 kts 54°
2026-05-06 22:33 39.55470 2.72725 29 ft 31 kts 75°
2026-05-06 22:33 39.55494 2.72987 31 ft 24 kts 85°
2026-05-06 22:33 39.55433 2.73054 31 ft 14 kts 218°
2026-05-06 22:33 39.55362 2.72986 30 ft 13 kts 173°
2026-05-06 22:34 39.55282 2.73040 31 ft 13 kts 166°
2026-05-06 22:34 39.55196 2.73023 31 ft 13 kts 196°
2026-05-06 22:34 39.55168 2.73013 31 ft 0 kts 192°